FW6558 Weather Reports


time (UTC)temp
C
wind
direction
speed
KPH
gust
KPH
rain 1hr
cm
rain 24hr
cm
rain mn
cm
humidity
%
barometer
mb
20210518203615 20 82 0.0 3.2 0.00 0.00 0.00 87 1021.7
20210518203116 20 124 1.6 4.8 0.00 0.00 0.00 88 1021.6
20210518202616 20 158 1.6 3.2 0.00 0.00 0.00 86 1021.8
20210518202115 20 40 3.2 9.7 0.00 0.00 0.00 84 1021.8
20210518201615 20 90 1.6 4.8 0.00 0.00 0.00 85 1021.6
20210518201116 20 358 4.8 9.7 0.00 0.00 0.00 86 1021.6
20210518200615 20 45 0.0 11.3 0.00 0.00 0.00 85 1021.8
20210518200116 20 223 4.8 11.3 0.00 0.00 0.00 85 1022.0
20210518195615 21 271 1.6 4.8 0.00 0.00 0.00 85 1021.9
20210518195115 21 60 8.0 20.9 0.00 0.00 0.00 83 1021.8
20210518194616 21 148 1.6 8.0 0.00 0.00 0.00 84 1022.0
20210518194115 21 122 0.0 4.8 0.00 0.00 0.00 86 1022.2
20210518193616 21 70 1.6 4.8 0.00 0.00 0.00 84 1022.3
20210518193116 21 61 3.2 9.7 0.00 0.00 0.00 84 1022.0
20210518192615 21 43 1.6 9.7 0.00 0.00 0.00 83 1022.3
20210518192115 21 85 3.2 9.7 0.00 0.00 0.00 83 1022.3
20210518191615 21 335 1.6 4.8 0.00 0.00 0.00 84 1022.3
20210518191116 21 129 1.6 3.2 0.00 0.00 0.00 84 1022.3
20210518190615 20 212 1.6 4.8 0.00 0.00 0.00 85 1022.3
20210518190116 20 20 1.6 4.8 0.00 0.00 0.00 86 1022.4
20210518185615 20 256 1.6 8.0 0.00 0.00 0.00 85 1022.3
20210518185116 20 130 3.2 11.3 0.00 0.00 0.00 84 1022.5
20210518184615 21 7 0.0 16.1 0.00 0.00 0.00 83 1022.5
20210518184115 21 206 9.7 16.1 0.00 0.00 0.00 83 1022.2
20210518183615 21 103 4.8 8.0 0.00 0.00 0.00 84 1022.5
20210518183115 20 100 3.2 4.8 0.00 0.00 0.00 86 1022.6
20210518182615 21 29 0.0 9.7 0.00 0.00 0.00 87 1022.6
20210518182116 21 153 4.8 9.7 0.00 0.00 0.00 83 1022.5
20210518181615 21 223 3.2 4.8 0.00 0.00 0.00 85 1022.5
20210518181116 21 322 4.8 11.3 0.00 0.00 0.00 84 1022.8
20210518180615 21 66 4.8 12.9 0.00 0.00 0.00 83 1022.8
20210518180116 20 165 1.6 4.8 0.00 0.00 0.00 89 1022.9
20210518175615 20 268 3.2 11.3 0.00 0.00 0.00 86 1022.9
20210518175115 20 104 4.8 11.3 0.00 0.00 0.00 84 1022.7
20210518174616 20 37 1.6 3.2 0.00 0.00 0.00 85 1023.1
20210518174115 20 82 0.0 9.7 0.00 0.00 0.00 87 1023.2
20210518173615 20 218 3.2 8.0 0.00 0.00 0.00 85 1023.0
20210518173116 21 118 3.2 4.8 0.00 0.00 0.00 86 1023.1
20210518172616 21 152 1.6 12.9 0.00 0.00 0.00 85 1022.8
20210518172115 20 133 3.2 12.9 0.00 0.00 0.00 89 1023.0
20210518171615 20 181 3.2 9.7 0.00 0.00 0.00 87 1023.2
20210518171115 20 129 3.2 8.0 0.00 0.00 0.00 91 1023.0
20210518170615 20 55 3.2 4.8 0.00 0.00 0.00 90 1023.0
20210518170115 20 41 3.2 8.0 0.00 0.00 0.00 91 1023.2
20210518165616 20 106 3.2 8.0 0.00 0.00 0.00 90 1023.2
20210518165116 20 152 3.2 11.3 0.00 0.00 0.00 90 1023.1
20210518164615 20 141 1.6 12.9 0.00 0.00 0.00 90 1023.3
20210518164116 20 31 3.2 12.9 0.00 0.00 0.00 89 1023.2
20210518163615 20 108 6.4 11.3 0.00 0.00 0.00 91 1023.1
20210518163115 20 157 4.8 12.9 0.00 0.00 0.00 90 1023.2
20210518162615 19 87 3.2 9.7 0.00 0.00 0.00 91 1023.3
20210518162115 20 150 4.8 11.3 0.00 0.00 0.00 93 1023.3
20210518161615 19 134 0.0 1.6 0.00 0.00 0.00 94 1023.1
20210518161116 18 341 1.6 4.8 0.00 0.00 0.00 95 1023.2
20210518160616 18 183 3.2 9.7 0.00 0.00 0.00 96 1023.3
20210518160115 18 107 1.6 9.7 0.00 0.00 0.00 97 1023.4
20210518155616 18 252 3.2 9.7 0.00 0.00 0.00 96 1023.5
20210518155115 19 110 1.6 9.7 0.00 0.00 0.00 97 1023.5
20210518154615 18 83 3.2 9.7 0.00 0.00 0.00 97 1023.6
20210518154115 18 66 1.6 9.7 0.00 0.00 0.00 97 1023.5
20210518153616 18 95 3.2 8.0 0.00 0.00 0.00 97 1023.6
20210518153115 18 24 1.6 4.8 0.00 0.00 0.00 96 1023.4
20210518152616 18 57 1.6 3.2 0.00 0.00 0.00 98 1023.5
20210518152115 18 326 4.8 8.0 0.00 0.00 0.00 98 1023.5
20210518151615 18 160 3.2 4.8 0.00 0.00 0.00 98 1023.3
20210518151115 18 130 1.6 4.8 0.00 0.00 0.00 97 1023.4
20210518150616 18 167 1.6 4.8 0.00 0.00 0.00 97 1023.4
20210518150115 18 122 3.2 8.0 0.00 0.00 0.00 98 1023.4
20210518145615 18 80 1.6 8.0 0.00 0.00 0.00 98 1023.3
20210518145116 17 87 3.2 12.9 0.00 0.00 0.00 98 1023.2
20210518144615 18 117 4.8 9.7 0.00 0.00 0.00 97 1023.1
20210518144115 17 72 3.2 11.3 0.00 0.00 0.00 97 1023.2
20210518143615 17 95 0.0 11.3 0.00 0.00 0.00 99 1023.4
20210518143116 17 109 1.6 11.3 0.00 0.00 0.00 97 1023.2
20210518142615 17 87 0.0 4.8 0.00 0.00 0.00 98 1023.1
20210518142115 17 205 3.2 9.7 0.00 0.00 0.00 98 1023.3
20210518141615 17 114 0.0 9.7 0.00 0.00 0.00 98 1023.4
20210518141115 17 128 3.2 9.7 0.00 0.00 0.00 98 1023.4
20210518140615 17 170 1.6 9.7 0.00 0.00 0.00 98 1023.4
20210518140115 17 107 3.2 8.0 0.00 0.00 0.00 98 1023.4
20210518135615 17 82 1.6 9.7 0.00 0.00 0.00 99 1023.1
20210518135116 17 105 1.6 3.2 0.00 0.00 0.00 98 1023.2
20210518134615 17 112 1.6 4.8 0.00 0.00 0.00 98 1023.2
20210518134115 17 113 3.2 8.0 0.00 0.00 0.00 97 1023.1
20210518133615 17 114 3.2 8.0 0.00 0.00 0.00 97 1023.0
20210518133115 17 37 1.6 8.0 0.00 0.00 0.00 97 1023.2
20210518132615 17 161 3.2 8.0 0.00 0.00 0.00 97 1023.3
20210518132115 17 142 1.6 3.2 0.00 0.00 0.00 97 1023.0
20210518131615 17 59 1.6 3.2 0.00 0.00 0.00 97 1023.0
20210518131115 17 149 3.2 3.2 0.00 0.00 0.00 97 1022.9
20210518130615 17 73 1.6 9.7 0.00 0.00 0.00 98 1023.1
20210518130115 17 324 1.6 4.8 0.00 0.00 0.00 97 1022.9
20210518125615 16 92 1.6 3.2 0.00 0.00 0.00 98 1022.9
20210518125115 16 103 1.6 3.2 0.00 0.00 0.00 99 1022.9
20210518124615 16 326 1.6 1.6 0.00 0.00 0.00 99 1022.8
20210518124115 16 125 3.2 11.3 0.00 0.00 0.00 98 1022.9
20210518123615 16 98 0.0 1.6 0.00 0.00 0.00 99 1023.0
20210518123115 16 86 0.0 1.6 0.00 0.00 0.00 99 1022.7
20210518122615 16 108 1.6 4.8 0.00 0.00 0.00 99 1022.8
20210518122115 16 49 1.6 4.8 0.00 0.00 0.00 98 1022.7
20210518121615 16 98 1.6 4.8 0.00 0.00 0.00 98 1022.8
20210518121115 16 112 1.6 11.3 0.00 0.00 0.00 98 1022.6
20210518120615 16 222 0.0 8.0 0.00 0.00 0.00 98 1022.5
20210518120115 16 119 3.2 8.0 0.00 0.00 0.00 97 1022.6
20210518115615 16 128 0.0 3.2 0.00 0.00 0.00 98 1022.4
20210518115115 16 191 3.2 9.7 0.00 0.00 0.00 97 1022.5
20210518114615 16 100 1.6 3.2 0.00 0.00 0.00 97 1022.5
20210518114115 16 102 1.6 9.7 0.00 0.00 0.00 96 1022.5
20210518113615 16 151 1.6 4.8 0.00 0.00 0.00 96 1022.5
20210518113115 16 144 3.2 4.8 0.00 0.00 0.00 95 1022.3
20210518112614 16 121 3.2 8.0 0.00 0.00 0.00 95 1022.3
20210518112115 16 134 1.6 3.2 0.00 0.00 0.00 95 1022.2
20210518111615 16 33 1.6 4.8 0.00 0.00 0.00 94 1022.1
20210518111115 16 108 3.2 4.8 0.00 0.00 0.00 94 1022.0
20210518110615 16 181 1.6 4.8 0.00 0.00 0.00 94 1021.8
20210518110115 16 127 3.2 11.3 0.00 0.00 0.00 93 1022.0
20210518105614 16 93 3.2 8.0 0.00 0.00 0.00 93 1021.8
20210518105115 16 111 3.2 8.0 0.00 0.00 0.00 93 1022.0
20210518104614 16 124 3.2 9.7 0.00 0.00 0.00 93 1021.8
20210518104115 16 116 4.8 11.3 0.00 0.00 0.00 92 1021.7
20210518103615 16 148 3.2 4.8 0.00 0.00 0.00 92 1021.6
20210518103115 16 125 3.2 4.8 0.00 0.00 0.00 92 1021.4
20210518102615 16 137 1.6 4.8 0.00 0.00 0.00 92 1021.4
20210518102115 16 126 3.2 3.2 0.00 0.00 0.00 92 1021.4
20210518101615 16 104 1.6 3.2 0.00 0.00 0.00 91 1021.4
20210518101115 16 112 1.6 8.0 0.00 0.00 0.00 91 1021.3
20210518100615 16 115 3.2 4.8 0.00 0.00 0.00 90 1021.2
20210518100114 16 131 1.6 4.8 0.00 0.00 0.00 90 1021.1
20210518095615 16 227 3.2 4.8 0.00 0.00 0.00 90 1021.1
20210518095116 16 126 3.2 9.7 0.00 0.00 0.00 90 1020.9
20210518094615 16 136 4.8 8.0 0.00 0.00 0.00 90 1020.8
20210518094115 16 133 3.2 8.0 0.00 0.00 0.00 89 1020.8
20210518093615 17 90 0.0 4.8 0.00 0.00 0.00 89 1020.7
20210518093115 17 138 3.2 8.0 0.00 0.00 0.00 89 1021.0
20210518092615 16 138 3.2 3.2 0.00 0.00 0.00 90 1020.7
20210518092115 16 113 0.0 3.2 0.00 0.00 0.00 92 1020.8
20210518091615 17 98 1.6 4.8 0.00 0.00 0.00 90 1021.0
20210518091115 17 131 1.6 3.2 0.00 0.00 0.00 90 1020.9
20210518090615 17 113 0.0 4.8 0.00 0.00 0.00 90 1020.7
20210518090115 17 118 0.0 8.0 0.00 0.00 0.00 89 1020.6
20210518085614 17 95 1.6 4.8 0.00 0.00 0.00 89 1020.7
20210518085116 17 110 0.0 1.6 0.00 0.00 0.00 90 1020.5
20210518084615 17 110 0.0 1.6 0.00 0.00 0.00 91 1020.3
20210518084114 17 110 0.0 1.6 0.00 0.00 0.00 90 1020.3
20210518083615 17 114 0.0 1.6 0.00 0.00 0.00 90 1020.3
20210518083114 17 114 1.6 4.8 0.00 0.00 0.00 90 1020.2
20210518082615 17 201 0.0 1.6 0.00 0.00 0.00 89 1020.3
20210518082114 17 201 0.0 3.2 0.00 0.00 0.00 88 1020.3
20210518081615 17 100 1.6 4.8 0.00 0.00 0.00 88 1020.0
20210518081115 17 121 1.6 8.0 0.00 0.00 0.00 88 1019.9
20210518080615 17 111 1.6 8.0 0.00 0.00 0.00 88 1020.0
20210518080115 17 109 0.0 3.2 0.00 0.00 0.00 88 1019.7
20210518075615 17 186 1.6 4.8 0.00 0.00 0.00 87 1019.9
20210518075115 17 127 3.2 8.0 0.00 0.00 0.00 88 1019.7
20210518074614 17 103 1.6 8.0 0.00 0.00 0.00 87 1020.0
20210518074115 17 331 3.2 8.0 0.00 0.00 0.00 86 1019.9
20210518073615 17 118 1.6 3.2 0.00 0.00 0.00 86 1019.9
20210518073115 17 129 1.6 4.8 0.00 0.00 0.00 86 1020.0
20210518072615 17 108 1.6 4.8 0.00 0.00 0.00 85 1019.9
20210518072115 17 78 1.6 4.8 0.00 0.00 0.00 85 1020.1
20210518071615 17 98 1.6 4.8 0.00 0.00 0.00 85 1019.9
20210518071114 17 109 3.2 4.8 0.00 0.00 0.00 85 1020.2
20210518070615 17 93 0.0 3.2 0.00 0.00 0.00 85 1020.2
20210518070115 17 101 1.6 3.2 0.00 0.00 0.00 85 1019.9
20210518065615 18 165 1.6 4.8 0.00 0.00 0.00 84 1019.8
20210518065115 18 58 0.0 4.8 0.00 0.00 0.00 83 1019.9
20210518064615 18 158 0.0 4.8 0.00 0.00 0.00 84 1019.8
20210518064115 18 109 1.6 4.8 0.00 0.00 0.00 83 1019.6
20210518063614 18 333 1.6 4.8 0.00 0.00 0.00 83 1019.7
20210518063115 17 94 1.6 3.2 0.00 0.00 0.00 83 1019.9
20210518062615 17 96 0.0 1.6 0.00 0.00 0.00 84 1019.8
20210518062115 17 186 1.6 12.9 0.00 0.00 0.00 84 1019.9
20210518061614 17 133 0.0 1.6 0.00 0.00 0.00 84 1019.9
20210518061115 17 130 1.6 8.0 0.00 0.00 0.00 84 1019.8
20210518060615 17 78 0.0 4.8 0.00 0.00 0.00 85 1020.1
20210518060115 17 114 1.6 8.0 0.00 0.00 0.00 84 1020.0
20210518055615 17 94 1.6 3.2 0.00 0.00 0.00 85 1020.1
20210518055114 18 83 1.6 9.7 0.00 0.00 0.00 84 1020.0
20210518054615 17 12 1.6 4.8 0.00 0.00 0.00 86 1020.1
20210518054115 17 133 1.6 4.8 0.00 0.00 0.00 86 1019.8
20210518053615 17 74 0.0 4.8 0.00 0.00 0.00 85 1019.9
20210518053115 17 127 1.6 4.8 0.00 0.00 0.00 85 1020.1
20210518052615 18 119 1.6 3.2 0.00 0.00 0.00 85 1020.3
20210518052115 18 78 0.0 3.2 0.00 0.00 0.00 85 1020.3
20210518051615 18 72 0.0 4.8 0.00 0.00 0.00 85 1020.3
20210518051114 18 82 0.0 3.2 0.00 0.00 0.00 85 1020.2
20210518050614 17 137 0.0 3.2 0.00 0.00 0.00 86 1020.5
20210518050115 17 142 1.6 1.6 0.00 0.00 0.00 86 1020.6
20210518045615 17 58 0.0 4.8 0.00 0.00 0.00 86 1020.5
20210518045114 17 89 1.6 4.8 0.00 0.00 0.00 86 1020.4
20210518044615 17 77 0.0 1.6 0.00 0.00 0.00 89 1020.6
20210518044114 17 77 0.0 0.0 0.00 0.00 0.00 88 1020.6
20210518043614 18 77 0.0 0.0 0.00 0.00 0.00 87 1020.8
20210518043115 18 126 1.6 3.2 0.00 0.00 0.00 85 1020.6
20210518042614 18 117 0.0 1.6 0.00 0.00 0.00 88 1020.8
20210518042114 18 120 0.0 4.8 0.00 0.00 0.00 85 1020.7
20210518041615 18 78 0.0 1.6 0.00 0.00 0.00 87 1020.7
20210518041115 17 355 0.0 3.2 0.00 0.00 0.00 87 1020.6
20210518040615 17 328 0.0 4.8 0.00 0.00 0.00 86 1020.7
20210518040114 17 101 0.0 1.6 0.00 0.00 0.00 87 1020.8
20210518035614 17 116 0.0 0.0 0.00 0.00 0.00 87 1020.7
20210518035115 17 87 0.0 0.0 0.00 0.00 0.00 87 1020.8
20210518034615 18 87 0.0 0.0 0.00 0.00 0.00 86 1021.0
20210518034115 18 87 1.6 3.2 0.00 0.00 0.00 85 1020.8
20210518033615 18 142 0.0 0.0 0.00 0.00 0.00 86 1020.7
20210518033115 18 122 0.0 1.6 0.00 0.00 0.00 85 1020.7
20210518032615 18 188 0.0 1.6 0.00 0.00 0.00 84 1020.6
20210518032114 18 187 0.0 3.2 0.00 0.00 0.00 87 1020.6
20210518031615 18 149 0.0 3.2 0.00 0.00 0.00 85 1020.5
20210518031114 18 152 0.0 1.6 0.00 0.00 0.00 87 1020.6
20210518030614 17 87 0.0 3.2 0.00 0.00 0.00 88 1020.6
20210518030115 17 135 0.0 3.2 0.00 0.00 0.00 87 1020.7
20210518025614 17 87 0.0 3.2 0.00 0.00 0.00 89 1020.4
20210518025114 17 91 0.0 0.0 0.00 0.00 0.00 90 1020.5
20210518024615 17 91 0.0 0.0 0.00 0.00 0.00 90 1020.6
20210518024114 17 110 0.0 1.6 0.00 0.00 0.00 87 1020.5
20210518023615 17 126 0.0 0.0 0.00 0.00 0.00 89 1020.2
20210518023114 18 126 0.0 0.0 0.00 0.00 0.00 90 1020.1
20210518022615 18 126 0.0 0.0 0.00 0.00 0.00 88 1020.3
20210518022114 18 126 0.0 3.2 0.00 0.00 0.00 88 1020.3
20210518021615 18 72 0.0 1.6 0.00 0.00 0.00 85 1020.5
20210518021115 18 96 0.0 1.6 0.00 0.00 0.00 84 1020.2
20210518020615 18 86 0.0 1.6 0.00 0.00 0.00 84 1020.4
20210518020114 18 38 0.0 1.6 0.00 0.00 0.00 83 1020.1
20210518015615 18 39 0.0 1.6 0.00 0.00 0.00 83 1020.2
20210518015115 18 103 0.0 1.6 0.00 0.00 0.00 83 1019.9
20210518014615 18 93 0.0 1.6 0.00 0.00 0.00 82 1020.1
20210518014114 18 155 0.0 1.6 0.00 0.00 0.00 84 1019.7
20210518013614 18 138 1.6 3.2 0.00 0.00 0.00 84 1019.8
20210518013115 18 127 0.0 3.2 0.00 0.00 0.00 86 1019.7
20210518012614 18 130 0.0 0.0 0.00 0.00 0.00 85 1019.9
20210518012115 18 153 0.0 0.0 0.00 0.00 0.00 89 1020.0
20210518011615 18 152 0.0 0.0 0.00 0.00 0.00 89 1020.1
20210518011115 18 152 0.0 1.6 0.00 0.00 0.00 88 1020.0
20210518010615 18 153 0.0 4.8 0.00 0.00 0.00 88 1019.9
20210518010115 18 35 0.0 0.0 0.00 0.00 0.00 88 1019.8
20210518005615 18 36 0.0 0.0 0.00 0.00 0.00 88 1019.9
20210518005114 18 36 0.0 0.0 0.00 0.00 0.00 89 1020.0
20210518004615 18 35 0.0 1.6 0.00 0.00 0.00 87 1020.0
20210518004114 18 35 0.0 0.0 0.00 0.00 0.00 85 1020.0
20210518003615 18 35 0.0 0.0 0.00 0.00 0.00 85 1020.0
20210518003114 18 35 0.0 1.6 0.00 0.00 0.00 84 1019.9
20210518002615 19 43 0.0 1.6 0.00 0.00 0.00 85 1019.9
20210518002114 19 72 0.0 1.6 0.00 0.00 0.00 84 1019.9
20210518001614 19 137 0.0 1.6 0.00 0.00 0.00 83 1019.9
20210518001114 19 106 1.6 1.6 0.00 0.00 0.00 84 1019.9
20210518000614 19 106 0.0 0.0 0.00 0.00 0.00 84 1020.0
20210518000115 19 106 0.0 0.0 0.00 0.00 0.00 84 1020.2
20210517235614 19 182 0.0 0.0 0.00 0.00 0.00 83 1020.2
20210517235115 19 104 0.0 0.0 0.00 0.00 0.00 83 1019.6
20210517234614 19 104 0.0 1.6 0.00 0.00 0.00 82 1019.8
20210517234115 20 104 0.0 1.6 0.00 0.00 0.00 82 1019.7
20210517233615 20 107 0.0 1.6 0.00 0.00 0.00 81 1019.9
20210517233114 20 107 0.0 1.6 0.00 0.00 0.00 84 1019.6
20210517232615 20 107 0.0 1.6 0.00 0.00 0.00 81 1019.7
20210517232115 20 107 0.0 3.2 0.00 0.00 0.00 85 1019.8
20210517231614 20 60 0.0 0.0 0.00 0.00 0.00 86 1019.6
20210517231115 20 60 0.0 0.0 0.00 0.00 0.00 85 1019.8
20210517230615 20 60 0.0 0.0 0.00 0.00 0.00 81 1020.0
20210517230114 20 115 0.0 0.0 0.00 0.00 0.00 82 1020.0
20210517225615 20 115 0.0 0.0 0.00 0.00 0.00 84 1020.1
20210517225114 20 78 0.0 0.0 0.00 0.00 0.00 82 1019.8
20210517224615 20 77 0.0 0.0 0.00 0.00 0.00 80 1019.9
20210517224114 20 67 0.0 0.0 0.00 0.00 0.00 86 1019.7
20210517223614 20 66 0.0 1.6 0.00 0.00 0.00 79 1019.9
20210517223114 20 92 0.0 0.0 0.00 0.00 0.00 82 1019.9
20210517222614 20 145 1.6 1.6 0.00 0.00 0.00 80 1020.0
20210517222114 20 78 0.0 1.6 0.00 0.00 0.00 80 1020.2
20210517221615 20 78 0.0 1.6 0.00 0.00 0.00 75 1020.2
20210517221115 20 77 0.0 0.0 0.00 0.00 0.00 80 1019.9
20210517220615 20 77 0.0 1.6 0.00 0.00 0.00 80 1019.8
20210517220114 20 77 0.0 1.6 0.00 0.00 0.00 78 1019.8
20210517215614 20 76 0.0 0.0 0.00 0.00 0.00 82 1020.0
20210517215114 20 76 0.0 0.0 0.00 0.00 0.00 76 1019.9
20210517214614 20 84 0.0 0.0 0.00 0.00 0.00 77 1019.9
20210517214114 21 85 0.0 0.0 0.00 0.00 0.00 78 1019.8
20210517213615 21 85 0.0 0.0 0.00 0.00 0.00 75 1020.0
20210517213114 21 84 1.6 1.6 0.00 0.00 0.00 74 1020.1
20210517212614 21 85 0.0 1.6 0.00 0.00 0.00 75 1020.0
20210517212114 21 92 0.0 0.0 0.00 0.00 0.00 76 1020.0
20210517211614 21 92 0.0 1.6 0.00 0.00 0.00 76 1019.9
20210517211115 21 92 0.0 1.6 0.00 0.00 0.00 76 1019.8
20210517210614 21 86 1.6 3.2 0.00 0.00 0.00 72 1020.0
20210517210114 21 63 0.0 1.6 0.00 0.00 0.00 75 1019.9
20210517205614 21 86 0.0 4.8 0.00 0.00 0.00 72 1019.6
20210517205114 21 99 1.6 3.2 0.00 0.00 0.00 69 1019.9
20210517204615 21 103 0.0 1.6 0.00 0.00 0.00 71 1019.8
20210517204114 21 103 1.6 1.6 0.00 0.00 0.00 68 1020.0